Regional Weather Roundup
Issued by NWS Wilmington, NC

Home | Current Version | Previous Version | Text Only | Print | Product List | Glossary On
Versions: 1 2 3 4 5 6 7 8 9 10 11 12 13 14 15 16 17 18 19 20 21 22 23 24 25 26 27 28 29 30 31 32 33 34 35 36 37 38 39 40 41 42 43 44 45 46 47 48 49 50
000
ASUS42 KILM 270110
RWRILM
RWRILM
REGIONAL HOURLY WEATHER ROUNDUP
NATIONAL WEATHER SERVICE WILMINGTON NC
800 PM EST MON JAN 26 2015

NOTE: "FAIR" INDICATES FEW OR NO CLOUDS BELOW 12,000 FEET WITH NO
SIGNIFICANT WEATHER AND/OR OBSTRUCTIONS TO VISIBILITY.

...............WFO WILMINGTON COUNTY WARNING AREA...............

......COASTAL NC AND SC COUNTIES......

CITY           SKY/WX    TMP DP  RH WIND       PRES   REMARKS
WILMINGTON     CLOUDY    49  43  80 NW10      29.65R
SOUTHPORT      RAIN      48  46  91 NW5       29.66R
N MYRTLE BEACH CLOUDY    48  42  80 NW7       29.67R
MYRTLE BEACH   MOCLDY    48  43  81 NW8       29.70R

......INLAND NC AND SC COUNTIES.......

CITY           SKY/WX    TMP DP  RH WIND       PRES   REMARKS
LUMBERTON      CLOUDY    49  42  77 NW13      29.67R
ELIZABETHTOWN  CLOUDY    47  45  93 W3        29.66R
WHITEVILLE     CLOUDY    48  42  80 W3        29.66R
FLORENCE       CLOUDY    49  39  68 N5        29.69R
DARLINGTON     CLOUDY    46  39  76 N3        29.70R

....................REST OF NORTH CAROLINA......................

.........EASTERN NC.........

CITY           SKY/WX    TMP DP  RH WIND       PRES   REMARKS
CAPE HATTERAS  CLOUDY    48  45  89 NW10G21   29.55R
JACKSONVILLE   CLOUDY    46  43  87 W5        29.64R
MOREHEAD CITY  CLOUDY    48  44  86 NW10      29.59R
KENANSVILLE    CLOUDY    47  43  86 NW6       29.65R
NEW BERN       LGT RAIN  49  44  83 NW6       29.62R
ELIZABETH CITY CLOUDY    45  40  82 NW15      29.58R

.........CENTRAL NC.........

CITY           SKY/WX    TMP DP  RH WIND       PRES   REMARKS
RALEIGH DURHAM LGT RAIN  44  38  79 VRB3      29.67R
ROCKY MOUNT    CLOUDY    46  40  79 NW14      29.65R
ROANOKE RAPIDS NOT AVBL
FAYETTEVILLE   CLOUDY    48  42  80 NW9       29.66R
HOFFMAN        MOCLDY    45  42  90 NW3       29.69R

.........WESTERN NC.........

CITY           SKY/WX    TMP DP  RH WIND       PRES   REMARKS
CHARLOTTE      CLOUDY    42  26  53 NW12G21   29.74R
GREENSBORO     CLOUDY    41  29  62 NW16      29.68R
HICKORY        NOT AVBL
BOONE          NOT AVBL
ASHEVILLE      NOT AVBL

.....................REST OF SOUTH CAROLINA.....................

.........EASTERN SC.........

CITY           SKY/WX    TMP DP  RH WIND       PRES   REMARKS
CHARLESTON     MOCLDY    51  37  58 W10       29.74R
BEAUFORT MCAS  PTCLDY    50  35  56 W15G25    29.79R
HILTON HEAD    CLOUDY    52  36  54 W12G23    29.81R

.........CENTRAL SC.........

CITY           SKY/WX    TMP DP  RH WIND       PRES   REMARKS
COLUMBIA       PTCLDY    47  34  60 W15       29.76R
ORANGEBURG     CLEAR     47  33  58 W17G28    29.76R
SUMTER SHAW    CLOUDY    51  35  54 W15       29.70R

.........WESTERN SC.........

CITY           SKY/WX    TMP DP  RH WIND       PRES   REMARKS
GREENVILLE     NOT AVBL
ROCK HILL      CLOUDY    43  28  55 NW13      29.75R
ANDERSON       CLEAR     38  27  64 W14       29.82R WCI  30
CLEMSON        NOT AVBL
GREENWOOD      CLEAR     41  29  62 W8        29.81R


...................COASTAL AND OFFSHORE REPORTS..................

................LOCAL PIERS AND NC RESERVE................


STATION/POSITION TIME  SKY/WX   TEMP    WIND        PRES    VSBY
                                AIR SEA DIR/SP/G
                 (UTC)          (F)     (DEG/KT/KT) (MB)    (MI)
JOHNY MRCER PIER 0100            50 54  320/ 10/ 14 1002.9R
NC RESRV MASNBRO NOT AVBL
OCEAN CREST PIER 0100            48 52  290/  9/ 12 1003.1R
SPRINGMAID  PIER 0100            49 50  290/  7/ 10 1004.9R


................COASTAL AND OFFSHORE BUOYS................


STATION/POSITION TIME  SKY/WX   TEMP    WIND        PRES    VSBY
                                AIR SEA DIR/SP/G
                 (UTC)          (F)     (DEG/KT/KT) (MB)    (MI)
DIMNDSHOAL 41025 0100            54 71  310/ 21/ 25  999.5R
WVE H/P(F/S)=  4/ 4 WND WVE H/P(F/S)=  3/ 4 SWL H/P/D(F/S/D)=  2/ 80/ 8

CAPE LOOKOUT     0000            50     330/ 10/ 12 1001.1R
ONSLOW BAY 41036 NOT AVBL
5 WRITEBCH 41038 0000            52 52  340/ 16/ 17 1003.0R
MASONBORO  41110 0100               52                N/A
WVE H/P(F/S)=  3/ 8 WND WVE H/P(F/S)=  3/ 8

WILM HARBR 41108 0100               53                N/A
WVE H/P(F/S)=  4/ 7 WND WVE H/P(F/S)=  5/ 7

27WRITEBCH 41037 NOT AVBL
FRYING PAN 41013 0100            54 66  300/ 21/ 25 1003.6R
WVE H/P(F/S)=  6/ 7 WND WVE H/P(F/S)=  5/ 7 SWL H/P/D(F/S/D)=  2/290/11

SUNST NRSH 41024 0000            49     320/ 12/ 14   N/A
CAPRS NRSH 41029 0000            52     320/  8/ 10   N/A
EDISTO     41004 0100            55 68  310/ 23/ 29 1005.4R
WVE H/P(F/S)=  8/ 7 WND WVE H/P(F/S)=  8/ 7 SWL H/P/D(F/S/D)=  2/10



..........OFFSHORE BUOYS BEYOND 100 NM OFFSHORE...........
.....IN A TRIANGLE---HAT TO BERMUDA TO BAHAMAS TO HAT.....


STATION/POSITION TIME  SKY/WX   TEMP    WIND        PRES    VSBY
                                AIR SEA DIR/SP/G
                 (UTC)          (F)     (DEG/KT/KT) (MB)    (MI)
150E HAT   41001 NOT AVBL
W BERMUDA  41048 NOT AVBL
ATLANTIC S 41049 0049            76 75  190/ 17/ 21 1014.8R
WVE H/P(F/S)=  7/10 WND WVE H/P(F/S)=  5/ 6 SWL H/P/D(F/S/D)=  5/300/10

E BAHAMAS  41046 0020            78 79  180/ 19/ 23 1013.3R
WVE H/P(F/S)=  6/ 9 WND WVE H/P(F/S)=  5/ 6 SWL H/P/D(F/S/D)=  3/320/ 9

NE BAHAMAS 41047 0040            74 76  250/ 25/ 31 1008.1R
WVE H/P(F/S)= 11/ 8 WND WVE H/P(F/S)= 11/ 8

120E CANVRL41010 0100            66 76  280/ 25/ 31 1008.9R
WVE H/P(F/S)= 13/ 9 WND WVE H/P(F/S)= 11/ 8 SWL H/P/D(F/S/D)=  7/300/ 9


END



USA.gov is the U.S. government's official web portal to all federal, state and local government web resources and services.